Погода в Каунасе

Поиск расширенной информации на нашем сайте:

Полезная информация:

Новости сайта



02.01.2020
Опубликован Долгосрочный прогноз погоды по городам России и ближнего зарубежья на январь 2020 года.
Карты: Прогноз на январь и февраль 2020 года, Сравнение прогнозируемой аномалии приземной температуры воздуха на январь 2020 года по разным моделям.




Погода в Каунасе - сегодня

Время (UTC), дата Ветер
(°,м/с) 
Видим.   Явления Облачность Т
(°С)
Тd
(°С)
f(%) Тe
(°С)
Pmin
(гПа)
dP
(гПа)
Po
(мм)
O2
(г/м3)
Тmin Tmax R s Состояние
почвы
12 16.04.21 040 (СВ) 4-8{11}  20000 м  {дождь}  10/10 1020 м 
[Sc]
+10.4 +2.5 58 +10  1016.3  0.2  755  293      0.1     
15 16.04.21 060 (СВ) 4-7{10}  20000 м    8/6 1000 м средняя, верхняя 
[Sc|Ac trans|Ci fib]
+13.1 +4.4 55 +13  1016.2  755  290           
18 16.04.21 030 (СВ) 3-6{08}  20000 м    9/5 1500 м средняя, верхняя 
[Sc|Ac trans|Ci fib]
+12 +4.5 60 +12  1017  0.7  756  291    +13.3  0.1     
21 16.04.21 040 (СВ) 3-4{06}  20000 м    9/4 1500 м средняя 
[Sc|Ac trans]
+10.5 +4.4 66 +10  1018.1  1.1  757  293           
00 17.04.21 040 (СВ) 3-5{05}  20000 м    9/0 верхняя 
[Ci fib]
+8.2 +4 75 +8  1018.5  0.3  757  295           
03 17.04.21 120 (ЮВ) 2-3{05}  20000 м  слаб. дождь  10/0 средняя 
[Ac As]
+7.2 +3.4 77 +7  1018.6  0.1  757  297           
06 17.04.21 020 (С) 2-4{05}  19000 м  {дождь}  10/10 900 м 
[Sc]
+8.2 +6.1 87 +8  1020.1  1.5  758  296  +6.5    0.4    влажная 
09 17.04.21 080 (В) 3-5{06}  20000 м    1/1 800 м 
[Cu hum]
+14.1 +7.2 63 +14  1019.8  -0.1  758  289           
12 17.04.21 040 (СВ) 3-6{07}  20000 м    3/3 1500 м средняя 
[Cu hum|Ac trans]
+16.4 +6.4 52 +17  1019.4  -0.4  758  287           
15 17.04.21 040 (СВ) 5-10{10}  20000 м    6/3 600 м кучево-дожд., средняя, верхняя 
[Cb calv|Ac trans|Ci fib]
+16.6 +4.5 45 +16  1018.5  -0.8  757  287           
18 17.04.21 190 (Ю) 2-3{10}  15000 м  слаб. ливневой дождь{гроза}  9/8 1000 м кучево-дожд., средняя 
[Cb cap|Ac cuf]
+11.3 +8.5 83 +12  1020.4  1.7  758  292    +17.9  0.6     
21 17.04.21 220 (ЮЗ) 2-3{03}  5000 м  дымка{ливн. осадки}  9/9 1500 м 
[Sc]
+9 +8.4 96 +9  1020.8  0.3  758  294           
00 18.04.21 140 (ЮВ) 1-1{03}  3400 м  дымка{ливн. осадки}  ясно 
+7.5 +7 97 +8  1020.9  758  296      0.0     
03 18.04.21 140 (ЮВ) 2-3{03}  11000 м  в посл. час туман  1/0 верхняя 
[Ci fib]
+5.5 +4.9 96 +5  1020.7  -0.2  758  299           
06 18.04.21 030 (СВ) 3-5{05}  20000 м  {туман}  1/0 верхняя 
[Ci fib]
+9.7 +3.9 67 +9  1020.8  0.2  758  295  +5.1    0.0    влажная 
09 18.04.21 030 (СВ) 4-6{06}  20000 м    ясно <0100 м 
+15.6 +4.5 48 +16  1020.2  -0.4  758  288           
12 18.04.21 050 (СВ) 4-8{09}  18000 м    ясно 
+18.4 +1.8 33 +19  1019.6  -0.5  758  286           
15 18.04.21 040 (СВ) 5-9{09}  20000 м    ясно <0100 м 
+19.1 +1.1 30 +19  1018.9  -0.7  757  285           
18 18.04.21 040 (СВ) 2-4{10}  20000 м    ясно 
+15.5 +0.9 37 +16  1019.8  0.8  758  289    +19.6       
21 18.04.21 040 (СВ) 3-4{05}  20000 м    ясно <0100 м 
+11.8 -1.3 40 +12  1020.4  0.5  758  293           
00 19.04.21 010 (С) 2-3{05}  20000 м    ясно 
+7 -1 57 +7  1020.4  -0.2  758  298           
03 19.04.21 010 (С) 2-3{04}  20000 м    ясно 
+4.5 -1.3 66 +4  1020.6  0.1  758  301           
06 19.04.21 040 (СВ) 3-5{05}  20000 м    ясно 
+9.4 -1.7 46 +9  1020.5  0.1  758  296  +4.3        влажная 
09 19.04.21 050 (СВ) 4-6{06}  20000 м    ясно <0100 м 
+16.2 -1.4 30 +16  1020  -0.3  758  288           
12 19.04.21 110 (В) 4-8{10}  20000 м    3/3 1500 м 
[Cu hum]
+18 -3.6 23 +18  1019.1  -0.8  757  287           
Время (UTC), дата Ветер
(°,м/с) 
Видим.   Явления Облачность Т
(°С)
Тd
(°С)
f(%) Тe
(°С)
Pmin
(гПа)
dP
(гПа)
Po
(мм)
O2
(г/м3)
Тmin Tmax R s Состояние
почвы

Для получения пояснительной информации подведите курсор к названию столбца.

ПОГОДА в Каунасе - архив

Всё, что Вы хотите узнать о погоде в Каунасе - удобно и подробно!

Выберите нужную дату (начиная с 1 января 2019* года) и нажмите кнопку "Найти".
Будут отображены архивные сводки погоды по пункту Каунас, начиная с указанной даты.


Отображать данные в формате CSV (для использования в таблицах Excel)


Внимание! Наш архив погоды предназначен исключительно для личного некоммерческого использования в познавательных целях. Если Вам необходимы официальные справки о состоянии погоды (для производственных, юридических, коммерческих и т.п. целей), обращайтесь в органы Росгидромета.

*Примечание: данная дата относится к архиву по метеостанциям СССР (Россия, СНГ, Балтия).
Архив по метеостанциям Зарубежной Европы и Азии (кроме Китая) хранится 10 дней, по другим регионам земного шара (Китай, Африка, Америка, Австралия, Океания) - 1 день.

Каунас - район местоположения метеостанции


Название, широта, долгота, высота метеостанции:
Каунас 54.9°ш. 23.8°д. 77 м над ур. моря [Литва]

Дополнительная информация

В oтличие oт бoльшинства пoгoдных сайтoв мы публикуем пoдрoбную метеoинфoрмацию в детальнoм прoфессиoнальнoм фoрмате.

Характеристики температуры и влажнoсти вoздуха измеряются на высoте 2 м в тени вдали oт зданий и деревьев.
Скoрoсть ветра измеряется на высoте 10 м (на урoвне рoста челoвека скoрoсть ветра ниже в 1.5-2 раза). Если метеoстанция нахoдится в гoрoде или в лесу, тo скoрoсть ветра занижена на 2-4 м/с пo сравнению с oткрытым местoм. Скoрoсть ветра над акватoриями крупных рек и oзёр, а также на вершинах хoлмoв на 2-5 м/с выше, чем в oбычных услoвиях.
Атмoсфернoе давление в разных тoчках местнoсти мoжет значительнo oтличаться oт давления на метеoстанции, в зависимoсти oт услoвий рельефа (при пoдъёме на 10 м давление пoнижается примернo на 1 мм рт.ст.).